Regional Weather Roundup
Issued by NWS

Home | Current Version | Previous Version | Text Only | Print | Product List | Glossary Off
Versions: 1 2 3 4 5 6 7 8 9 10 11 12 13 14 15 16 17 18 19 20 21 22 23 24 25 26 27 28 29 30 31 32 33 34 35 36 37 38 39 40 41 42 43 44 45 46 47 48 49 50

000
ASUS43 KIND 010909
RWRIN

WEATHER ROUNDUP FOR INDIANA
NATIONAL WEATHER SERVICE INDIANAPOLIS IN
500 AM EDT MON SEP 01 2014

NOTE: "FAIR" INDICATES FEW OR NO CLOUDS BELOW 12,000 FEET WITH NO
SIGNIFICANT WEATHER AND/OR OBSTRUCTIONS TO VISIBILITY.

* - STATION DOES NOT REPORT WEATHER SUCH AS PRECIPITATION OR FOG.

+ - STATION NOT QUALITY CONTROLLED BY THE NATIONAL WEATHER SERVICE.
    USE DATA WITH CAUTION...ESPECIALLY DEWPOINT AND RELATIVE
    HUMIDITY OBSERVATIONS.

INZ001>003-010>013-019-020-011000-
NORTHWEST INDIANA

CITY           SKY/WX    TMP DP  RH WIND       PRES   REMARKS
GARY /AIRPORT/ PTCLDY    74  71  91 S5        29.85F
KNOX *+        PTCLDY    71  68  91 S7        29.88S
LA PORTE +     CLEAR     70  70 100 S6        29.89S
MICHIGAN CITY+ CLEAR     70  70 100 S7        29.87S
MONTICELLO +   PTCLDY    71  70  97 S7        29.90S
RENSSELAER +   PTCLDY    70  70 100 S6        29.89S FOG
VALPARAISO     CLEAR     71  69  93 S6        29.88S

$$

LMZ046-743>745-011000-
SOUTHERN LAKE MICHIGAN

STATION/POSITION TIME  TEMP WIND        PRES
                       AIR  DIR/SP/G
                 (UTC) (F)  (DEG/KT/KT) (MB)
MICHIGAN CITY    0900   72  150/ 11/ 17   N/A

$$

INZ004-005-014>016-021>024-011000-
NORTH CENTRAL INDIANA

CITY           SKY/WX    TMP DP  RH WIND       PRES   REMARKS
GOSHEN         CLEAR     72  69  90 S8        29.90F
LOGANSPORT +   CLEAR     70  68  94 S7        29.92S FOG
PERU/GRISSOM   PTCLDY    71  71 100 S9        29.92F
ROCHESTER +    CLEAR     73  72  94 S6        29.92S
SOUTH BEND     CLEAR     73  69  87 S9        29.89F
WARSAW +       CLEAR     70  70 100 S5        29.92S

$$

INZ006>009-017-018-025>027-011000-
NORTHEAST INDIANA

CITY           SKY/WX    TMP DP  RH WIND       PRES   REMARKS
ANGOLA *+      CLEAR     70  61  73 CALM      29.93S
AUBURN +       CLEAR     70  68  94 SW3       29.95S
FORT WAYNE     PTCLDY    70  68  93 S7        29.94F
HUNTINGTON +   MOCLDY    69  69  98 S5        29.94R

$$

INZ028-029-035-036-043>045-051>053-011000-
WEST CENTRAL INDIANA

CITY           SKY/WX    TMP DP  RH WIND       PRES   REMARKS
GREENCASTLE +  PTCLDY    70  70 100 CALM      29.95S
LAFAYETTE      MOCLDY    71  70  96 S7        29.91S
TERRE HAUTE    PTCLDY    73  70  90 S10       29.93S

$$

INZ030>032-037>040-046>048-054>057-064-065-011000-
CENTRAL INDIANA

CITY           SKY/WX    TMP DP  RH WIND       PRES   REMARKS
CP ATTERBURY + CLOUDY    72  70  94 S5        29.98R
FRANKFORT +    PTCLDY   N/A N/A N/A S6        29.94S HAZE
INDIANAPOLIS   MOCLDY    71  70  96 S9        29.94S
-EAGLE CREEK   PTCLDY    71  69  93 S5        29.94F
KOKOMO *+      MOCLDY    70  68  94 S9        29.93F
MARION +       LGT RAIN  69  69  98 S9        29.95S
MT COMFORT *+  CLOUDY    72 N/A N/A S5        29.97S
SHELBYVILLE    CLOUDY    73  71  93 S10       29.97S
ZIONSVILLE +   PTCLDY    72  68  89 S8        29.95F FOG

$$

INZ033-034-041-042-049-050-058-059-011000-
EAST CENTRAL INDIANA

CITY           SKY/WX    TMP DP  RH WIND       PRES   REMARKS
MUNCIE         MOCLDY    71  68  90 S8        29.97S

$$

INZ060-061-067>069-081>083-085>088-011000-
SOUTHWEST INDIANA

CITY           SKY/WX    TMP DP  RH WIND       PRES   REMARKS
EVANSVILLE     CLOUDY    76  72  87 SW13      29.97S
WASHINGTON +   PTCLDY    72  72 100 S6        29.95S

$$

INZ062-063-066-070>080-084-089>092-011000-
SOUTH CENTRAL AND SOUTHEAST INDIANA

CITY           SKY/WX    TMP DP  RH WIND       PRES   REMARKS
BEDFORD +      CLOUDY    72  68  88 S5        29.98  FOG
BLOOMINGTON    MOCLDY    73  71  93 S8        29.96F
NORTH VERNON + CLOUDY    73  73 100 S5        29.99

$$




USA.gov is the U.S. government's official web portal to all federal, state and local government web resources and services.